カタログに戻る

ONEWEB-0591

運用中通信PO
NORAD 54657·PAYLOAD·🇬🇧 United Kingdom

打ち上げ Dec 8, 2022 から Cape Canaveral Space Force Station

Loading…

次のパス (今後24時間)

TLE

最新Source: CelesTrak SupGP

元期: Sep 14, 2026, 13:53 UTC

1 54657C 22166R   26257.57862685 -.00002699  00000+0 -65436-2 0  2573
2 54657  87.9270 226.1888 0002080  85.6851  23.9769 13.21827888    15

AllMySatでONEWEB-0591をリアルタイム追跡

Download on the App Store